Arcata, CA

11:30 PM PDT on August 22, 2017 (GMT -0700)
Arcata

Weather History for KACV - October, 2013

Change the Weather History Date:

Monday, October 14, 2013

  Actual Average Record
Temperature  
Mean Temperature 54 °F -  
Max Temperature 66 °F 61 °F 78 °F (2004)
Min Temperature 41 °F 43 °F 37 °F (2002)
Degree Days  
Heating Degree Days 12    
Growing Degree Days 4 (Base 50)    
Moisture  
Dew Point 43 °F    
Average Humidity 78    
Maximum Humidity 96    
Minimum Humidity 42    
Precipitation  
Precipitation 0.01 in - - ()
Sea Level Pressure  
Sea Level Pressure 30.13 in    
Wind  
Wind Speed 3 mph (NW)    
Max Wind Speed 10 mph    
Max Gust Speed -    
Visibility 10 miles    
Events      
Averages and records for this station are not official NWS values.
T = Trace of Precipitation, MM = Missing Value Source: NWS Daily Summary

Daily Weather History Graph

Daily Weather History Graph

Search for Another Location

Airport or City:

Trip Planner

Search our weather history database for the weather conditions in past years. The results will help you decide how hot, cold, wet, or windy it might be!

Date:

Astronomy

Oct. 14, 2013 Rise Set
Actual Time 7:27 AM PDT 6:36 PM PDT
Civil Twilight 6:59 AM PDT 7:04 PM PDT
Nautical Twilight 6:27 AM PDT 7:36 PM PDT
Astronomical Twilight 5:55 AM PDT 8:08 PM PDT
Moon 4:11 PM PDT (10/14) 2:48 AM PDT (10/14)
Length of Visible Light 12h 05m
Length of Day
11h 09m
Waxing Gibbous, 80% of the Moon is Illuminated
Oct 14
Waxing Gibbous
Oct 18
Full
Oct 26
Last Quarter
Nov 3
New
Nov 9
First Quarter

Hourly Weather History & Observations

Time (PDT) Temp. Windchill Dew Point Humidity Pressure Visibility Wind Dir Wind Speed Gust Speed Precip Events Conditions
12:53 AM 45.0 °F 42.6 °F 42.1 °F 90% 30.14 in 10.0 mi ESE 4.6 mph - N/A   Clear
1:53 AM 43.0 °F - 41.0 °F 93% 30.14 in 10.0 mi Calm Calm - N/A   Clear
2:53 AM 42.1 °F - 41.0 °F 96% 30.13 in 10.0 mi Calm Calm - N/A   Clear
3:53 AM 42.1 °F 40.2 °F 39.9 °F 92% 30.13 in 10.0 mi ENE 3.5 mph - N/A   Clear
4:53 AM 41.0 °F - 39.0 °F 93% 30.13 in 10.0 mi Calm Calm - N/A   Clear
5:53 AM 41.0 °F - 39.9 °F 96% 30.14 in 10.0 mi Calm Calm - N/A   Clear
6:53 AM 41.0 °F - 39.0 °F 93% 30.15 in 10.0 mi Calm Calm - N/A   Clear
7:53 AM 42.1 °F - 39.9 °F 92% 30.15 in 8.0 mi Calm Calm - N/A   Clear
8:53 AM 48.9 °F - 45.0 °F 86% 30.16 in 10.0 mi Calm Calm - 0.01 in   Clear
9:53 AM 54.0 °F - 48.0 °F 80% 30.17 in 6.0 mi NW 4.6 mph - N/A   Haze
10:53 AM 55.9 °F - 48.0 °F 75% 30.17 in 7.0 mi NW 6.9 mph - N/A   Clear
11:53 AM 57.0 °F - 46.9 °F 69% 30.16 in 10.0 mi NW 4.6 mph - N/A   Clear
12:53 PM 61.0 °F - 44.1 °F 54% 30.16 in 10.0 mi NNW 4.6 mph - N/A   Clear
1:53 PM 61.0 °F - 46.0 °F 58% 30.13 in 10.0 mi West 3.5 mph - N/A   Clear
2:53 PM 64.9 °F - 45.0 °F 48% 30.11 in 10.0 mi WNW 4.6 mph - N/A   Clear
3:53 PM 64.0 °F - 43.0 °F 46% 30.09 in 10.0 mi NNW 10.4 mph - N/A   Clear
4:53 PM 66.0 °F - 42.1 °F 42% 30.09 in 10.0 mi North 6.9 mph - N/A   Clear
5:53 PM 59.0 °F - 46.0 °F 62% 30.09 in 10.0 mi NW 3.5 mph - N/A   Clear
6:53 PM 54.0 °F - 44.1 °F 69% 30.09 in 10.0 mi South 4.6 mph - N/A   Clear
7:53 PM 52.0 °F - 46.0 °F 80% 30.09 in 10.0 mi Calm Calm - N/A   Clear
8:53 PM 48.9 °F - 44.1 °F 83% 30.10 in 10.0 mi Calm Calm - N/A   Clear
9:53 PM 46.9 °F - 43.0 °F 86% 30.10 in 10.0 mi Calm Calm - N/A   Clear
10:53 PM 46.0 °F - 43.0 °F 89% 30.11 in 10.0 mi Calm Calm - N/A   Clear
11:53 PM 45.0 °F - 43.0 °F 93% 30.10 in 10.0 mi Calm Calm - N/A   Clear